This is the latest recevied weather packets stored in our database for station/object W4SNA-4. If no packets are shown the sender has not sent any weather packets the latest 10 day(s).
| Time | Temp. | Humidity | Pressure | Rain* | Wind** | Luminosity | Snow |
|---|---|---|---|---|---|---|---|
| 1778180503 | 21.67° C | 82% | 1002.8 hPa | 0 mm | - | - | - |
| 1778180410 | 21.67° C | 82% | 1002.8 hPa | 0 mm | - | - | - |
| 1778180110 | 21.11° C | 83% | 1002.8 hPa | 0 mm | - | - | - |
| 1778179810 | 21.11° C | 84% | 1003.3 hPa | 0 mm | - | - | - |
| 1778179524 | 21.11° C | 85% | 1003.3 hPa | 0 mm | - | - | - |
| 1778179316 | 21.11° C | 88% | 1003.3 hPa | 0 mm | - | - | - |
| 1778179218 | 21.11° C | 88% | 1003.3 hPa | 0 mm | - | - | - |
| 1778178913 | 21.11° C | 87% | 1003.3 hPa | 0 mm | - | - | - |
| 1778178614 | 20.56° C | 86% | 1003.3 hPa | 0 mm | - | - | - |
| 1778178310 | 20.56° C | 90% | 1003.3 hPa | 0 mm | - | - | - |
| 1778178011 | 20.56° C | 91% | 1003.3 hPa | 0 mm | - | - | - |
| 1778177709 | 20.56° C | 92% | 1003.3 hPa | 0 mm | - | - | - |
| 1778177410 | 20.56° C | 94% | 1003.3 hPa | 0 mm | - | - | - |
| 1778177121 | 20° C | 95% | 1003.7 hPa | 0 mm | - | - | - |
| 1778176809 | 20° C | 95% | 1003.7 hPa | 0 mm | - | - | - |
| 1778176512 | 20° C | 97% | 1003.7 hPa | 0 mm | - | - | - |
| 1778176210 | 20° C | 98% | 1003.8 hPa | 0 mm | - | - | - |
| 1778175912 | 19.44° C | 98% | 1003.8 hPa | 0 mm | - | - | - |
| 1778175610 | 19.44° C | 98% | 1003.8 hPa | 0 mm | - | - | - |
| 1778175315 | 18.89° C | 98% | 1003.9 hPa | 0 mm | - | - | - |
| 1778175011 | 19.44° C | 99% | 1003.9 hPa | 0 mm | - | - | - |
| 1778174722 | 19.44° C | 99% | 1003.9 hPa | 0 mm | - | - | - |
| 1778174413 | 19.44° C | 99% | 1004.2 hPa | 0 mm | - | - | - |
| 1778174110 | 18.89° C | 99% | 1004.2 hPa | 0 mm | - | - | - |
| 1778173809 | 18.89° C | 98% | 1004.2 hPa | 0 mm | - | - | - |
* Rain latest hour (hover to see other rain measurements)
** Current wind speed in m/s (hover to see current wind gust speed)